sat.trackr.live / text

‹ back to catalog

TAIJING-3 02

NORAD 58822 · 2024-016C

PAYLOAD ACTIVE UNKNOWN

§ Identity

Operator
Country
PRC
Launch date
2024-01-23
Launch site
JSC
Launch vehicle
Mass (kg)
RCS (m²)

External: N2YO · Heavens-Above · Gunter

§ Orbital elements

Epoch: 2026-09-21T22:07:55.644384Z

Period
94.34 min
Inclination
97.4312°
Eccentricity
0.0009193
Mean motion
15.26460097 rev/d
Perigee alt
480.1 km
Apogee alt
492.7 km
Semi-major
6,864.5 km
B*
1.9810e-4
RAAN
344.9653°
Arg perigee
209.2040°
Mean anomaly
150.8685°
Rev number
14,788

§ Raw data

TAIJING-3 021 58822U 24016C   26264.92217181  .00005096  00000+0  19810-3 0  99902 58822  97.4312 344.9653 0009193 209.2040 150.8685 15.26460097147887

JSON: /api/v1/satellites/58822 · /tle

For live sub-satellite position, see the globe view (requires WebGL).

§ Visibility from observer

Set your observer location to see the next 7 days of passes ≥ 10°. The values pass through the URL so the page stays shareable.

No JS? Fill the form by hand. The geolocation button needs JavaScript.